• Em Portugal
  • Lista de países
  • Para 7 dias
  • Temperatura da água
  • Mapas de satélite
  • Mapa do tempo
  • Widgets de tempo
  • user-avatar
    Iniciar Sessão

    Previsão horária em Boriskovo

    Hoje, 24 Maio, Quinta-feira

    Tempo Temperatura Precipitação Vento Pressão Humidade
    00:00 +13°C° 0 mm 1 m/s 751 mmHg 86%
    01:00 +12°C° 0 mm 1 m/s 751 mmHg 87%
    02:00 +11°C° 0 mm 1 m/s 751 mmHg 93%
    03:00 +11°C° 0 mm 1 m/s 751 mmHg 92%
    04:00 +11°C° 0 mm 1 m/s 751 mmHg 91%
    05:00 +11°C° 0 mm 1 m/s 751 mmHg 90%
    06:00 +13°C° 0 mm 1 m/s 751 mmHg 83%
    07:00 +15°C° 0 mm 1 m/s 751 mmHg 76%
    08:00 +18°C° 0 mm 2 m/s 752 mmHg 67%
    09:00 +19°C° 0 mm 2 m/s 752 mmHg 62%
    10:00 +20°C° 0 mm 2 m/s 751 mmHg 57%
    11:00 +21°C° 0 mm 3 m/s 751 mmHg 51%
    12:00 +22°C° 0,2 mm 3 m/s 751 mmHg 51%
    13:00 +22°C° 0,2 mm 3 m/s 751 mmHg 51%
    14:00 +24°C° 0,2 mm 3 m/s 751 mmHg 51%
    15:00 +22°C° 0,2 mm 3 m/s 751 mmHg 53%
    16:00 +22°C° 0,2 mm 3 m/s 751 mmHg 56%
    17:00 +22°C° 0,2 mm 3 m/s 751 mmHg 58%
    18:00 +20°C° 0,1 mm 3 m/s 751 mmHg 66%
    19:00 +19°C° 0,1 mm 2 m/s 751 mmHg 73%
    20:00 +17°C° 0,1 mm 2 m/s 751 mmHg 80%
    21:00 +16°C° 0 mm 3 m/s 752 mmHg 80%
    22:00 +14°C° 0 mm 3 m/s 752 mmHg 79%
    23:00 +13°C° 0 mm 3 m/s 752 mmHg 79%

    Amanhã, 25 Maio, Sexta-feira

    Tempo Temperatura Precipitação Vento Pressão Humidade
    00:00 +12°C° 0 mm 3 m/s 752 mmHg 78%
    01:00 +11°C° 0 mm 3 m/s 753 mmHg 78%
    02:00 +10°C° 0 mm 3 m/s 753 mmHg 78%
    03:00 +10°C° 0 mm 2 m/s 753 mmHg 79%
    04:00 +9°C° 0 mm 2 m/s 753 mmHg 80%
    05:00 +9°C° 0 mm 2 m/s 753 mmHg 82%
    06:00 +13°C° 0 mm 2 m/s 754 mmHg 77%
    07:00 +15°C° 0 mm 2 m/s 754 mmHg 73%
    08:00 +17°C° 0 mm 2 m/s 754 mmHg 69%
    09:00 +18°C° 0 mm 2 m/s 755 mmHg 63%
    10:00 +20°C° 0 mm 3 m/s 755 mmHg 57%
    11:00 +22°C° 0 mm 3 m/s 755 mmHg 51%
    12:00 +22°C° 0 mm 3 m/s 755 mmHg 49%
    13:00 +22°C° 0 mm 3 m/s 755 mmHg 47%
    14:00 +24°C° 0 mm 3 m/s 755 mmHg 45%
    15:00 +24°C° 0 mm 3 m/s 755 mmHg 45%
    16:00 +22°C° 0 mm 3 m/s 755 mmHg 45%
    17:00 +22°C° 0 mm 3 m/s 755 mmHg 46%
    18:00 +20°C° 0 mm 3 m/s 755 mmHg 54%
    19:00 +18°C° 0 mm 2 m/s 755 mmHg 61%
    20:00 +16°C° 0 mm 2 m/s 755 mmHg 69%
    21:00 +15°C° 0 mm 2 m/s 756 mmHg 71%
    22:00 +14°C° 0 mm 2 m/s 756 mmHg 72%
    23:00 +12°C° 0 mm 2 m/s 757 mmHg 73%

    Depois de amanhã, 26 Maio, Sábado

    Tempo Temperatura Precipitação Vento Pressão Humidade
    00:00 +12°C° 0 mm 2 m/s 757 mmHg 75%
    01:00 +10°C° 0 mm 2 m/s 757 mmHg 76%
    02:00 +10°C° 0 mm 2 m/s 758 mmHg 77%
    03:00 +10°C° 0 mm 2 m/s 758 mmHg 77%
    04:00 +10°C° 0 mm 2 m/s 758 mmHg 77%
    05:00 +10°C° 0 mm 2 m/s 758 mmHg 77%
    06:00 +13°C° 0 mm 2 m/s 758 mmHg 70%
    07:00 +15°C° 0 mm 2 m/s 758 mmHg 64%
    08:00 +17°C° 0 mm 2 m/s 758 mmHg 57%
    09:00 +18°C° 0 mm 2 m/s 758 mmHg 53%
    10:00 +19°C° 0 mm 2 m/s 758 mmHg 48%
    11:00 +21°C° 0 mm 3 m/s 758 mmHg 43%
    12:00 +21°C° 0 mm 3 m/s 758 mmHg 42%
    13:00 +22°C° 0 mm 3 m/s 758 mmHg 41%
    14:00 +22°C° 0 mm 3 m/s 757 mmHg 40%
    15:00 +22°C° 0 mm 3 m/s 757 mmHg 42%
    16:00 +22°C° 0 mm 3 m/s 756 mmHg 44%
    17:00 +23°C° 0 mm 2 m/s 756 mmHg 46%
    18:00 +20°C° 0 mm 2 m/s 756 mmHg 55%
    19:00 +18°C° 0 mm 2 m/s 756 mmHg 63%
    20:00 +16°C° 0 mm 2 m/s 756 mmHg 72%
    21:00 +15°C° 0 mm 2 m/s 756 mmHg 75%
    22:00 +14°C° 0 mm 2 m/s 756 mmHg 79%
    23:00 +13°C° 0 mm 2 m/s 756 mmHg 82%

    27 Maio, Domingo

    Tempo Temperatura Precipitação Vento Pressão Humidade
    00:00 +12°C° 0 mm 2 m/s 756 mmHg 84%
    01:00 +12°C° 0 mm 2 m/s 756 mmHg 85%
    02:00 +10°C° 0 mm 2 m/s 756 mmHg 87%
    03:00 +10°C° 0 mm 2 m/s 756 mmHg 86%
    04:00 +10°C° 0 mm 2 m/s 756 mmHg 86%
    05:00 +12°C° 0 mm 2 m/s 756 mmHg 85%
    06:00 +14°C° 0 mm 2 m/s 756 mmHg 77%
    07:00 +16°C° 0 mm 2 m/s 756 mmHg 70%
    08:00 +18°C° 0 mm 2 m/s 756 mmHg 62%
    09:00 +20°C° 0 mm 1 m/s 756 mmHg 56%
    10:00 +22°C° 0 mm 1 m/s 756 mmHg 51%
    11:00 +23°C° 0 mm 1 m/s 756 mmHg 45%
    12:00 +24°C° 0 mm 1 m/s 755 mmHg 43%
    13:00 +25°C° 0 mm 1 m/s 755 mmHg 41%
    14:00 +26°C° 0 mm 1 m/s 755 mmHg 39%
    15:00 +25°C° 0 mm 1 m/s 755 mmHg 41%
    16:00 +25°C° 0 mm 1 m/s 754 mmHg 42%
    17:00 +25°C° 0 mm 1 m/s 754 mmHg 43%
    18:00 +23°C° 0 mm 1 m/s 754 mmHg 51%
    19:00 +21°C° 0 mm 1 m/s 754 mmHg 60%
    20:00 +19°C° 0 mm 1 m/s 754 mmHg 68%
    21:00 +18°C° 0 mm 1 m/s 755 mmHg 70%
    22:00 +16°C° 0 mm 1 m/s 755 mmHg 73%
    23:00 +15°C° 0 mm 2 m/s 755 mmHg 75%

    28 Maio, Segunda-feira

    Tempo Temperatura Precipitação Vento Pressão Humidade
    00:00 +14°C° 0 mm 2 m/s 756 mmHg 72%
    01:00 +13°C° 0 mm 2 m/s 756 mmHg 70%
    02:00 +12°C° 0 mm 2 m/s 756 mmHg 67%
    03:00 +12°C° 0 mm 2 m/s 756 mmHg 66%
    04:00 +10°C° 0 mm 2 m/s 757 mmHg 65%
    05:00 +10°C° 0 mm 2 m/s 757 mmHg 64%
    06:00 +13°C° 0 mm 2 m/s 757 mmHg 59%
    07:00 +15°C° 0 mm 2 m/s 757 mmHg 55%
    08:00 +17°C° 0 mm 2 m/s 758 mmHg 50%
    09:00 +18°C° 0 mm 2 m/s 758 mmHg 45%
    10:00 +20°C° 0 mm 2 m/s 758 mmHg 41%
    11:00 +23°C° 0 mm 2 m/s 758 mmHg 36%
    12:00 +23°C° 0 mm 2 m/s 758 mmHg 35%
    13:00 +24°C° 0 mm 2 m/s 758 mmHg 33%
    14:00 +24°C° 0 mm 2 m/s 758 mmHg 32%
    15:00 +24°C° 0 mm 2 m/s 758 mmHg 34%
    16:00 +24°C° 0 mm 2 m/s 758 mmHg 36%
    17:00 +24°C° 0 mm 2 m/s 758 mmHg 39%
    18:00 +21°C° 0 mm 2 m/s 757 mmHg 47%
    19:00 +20°C° 0 mm 1 m/s 757 mmHg 55%
    20:00 +18°C° 0 mm 1 m/s 757 mmHg 64%
    21:00 +15°C° 0 mm 1 m/s 758 mmHg 65%
    22:00 +14°C° 0 mm 1 m/s 758 mmHg 66%
    23:00 +13°C° 0 mm 1 m/s 758 mmHg 67%

    29 Maio, Terça-feira

    Tempo Temperatura Precipitação Vento Pressão Humidade
    00:00 +12°C° 0 mm 1 m/s 758 mmHg 68%
    01:00 +12°C° 0 mm 1 m/s 759 mmHg 69%
    02:00 +11°C° 0 mm 1 m/s 759 mmHg 70%
    03:00 +12°C° 0 mm 1 m/s 759 mmHg 72%
    04:00 +12°C° 0 mm 1 m/s 759 mmHg 74%
    05:00 +12°C° 0 mm 1 m/s 759 mmHg 77%
    06:00 +14°C° 0 mm 1 m/s 759 mmHg 70%
    07:00 +18°C° 0 mm 1 m/s 759 mmHg 63%
    08:00 +20°C° 0 mm 1 m/s 759 mmHg 56%
    09:00 +22°C° 0 mm 1 m/s 759 mmHg 51%
    10:00 +24°C° 0 mm 1 m/s 758 mmHg 45%
    11:00 +25°C° 0 mm 2 m/s 758 mmHg 40%
    12:00 +26°C° 0 mm 2 m/s 758 mmHg 38%
    13:00 +26°C° 0 mm 2 m/s 757 mmHg 36%
    14:00 +27°C° 0 mm 2 m/s 757 mmHg 35%
    15:00 +27°C° 0 mm 2 m/s 757 mmHg 37%
    16:00 +27°C° 0 mm 2 m/s 756 mmHg 39%
    17:00 +26°C° 0 mm 2 m/s 756 mmHg 41%
    18:00 +24°C° 0 mm 1 m/s 755 mmHg 50%
    19:00 +22°C° 0 mm 1 m/s 755 mmHg 59%
    20:00 +20°C° 0 mm 1 m/s 755 mmHg 67%
    21:00 +19°C° 0 mm 1 m/s 755 mmHg 70%
    22:00 +18°C° 0 mm 1 m/s 755 mmHg 73%
    23:00 +16°C° 0 mm 1 m/s 755 mmHg 76%
    Mostrar mais